Stündliche Wetter Holubychi

Heute, 15 Juni, Dienstag

Zeit Temperatur Niederschläge Wind Luftdruck Luftfeuchtigkeit
00:00 +17°C° 0 mm 2 m/S 748 mmHg 91%
01:00 +16°C° 0 mm 2 m/S 748 mmHg 92%
02:00 +16°C° 0 mm 2 m/S 748 mmHg 93%
03:00 +16°C° 0 mm 2 m/S 748 mmHg 93%
04:00 +16°C° 0 mm 2 m/S 748 mmHg 93%
05:00 +16°C° 0 mm 2 m/S 748 mmHg 93%
06:00 +18°C° 0 mm 2 m/S 748 mmHg 87%
07:00 +20°C° 0 mm 2 m/S 748 mmHg 82%
08:00 +21°C° 0 mm 2 m/S 748 mmHg 76%
09:00 +24°C° 0.1 mm 2 m/S 748 mmHg 71%
10:00 +25°C° 0.1 mm 2 m/S 748 mmHg 66%
11:00 +26°C° 0.1 mm 2 m/S 748 mmHg 60%
12:00 +26°C° 0.2 mm 2 m/S 747 mmHg 60%
13:00 +26°C° 0.2 mm 2 m/S 747 mmHg 59%
14:00 +27°C° 0.2 mm 2 m/S 747 mmHg 59%
15:00 +26°C° 0.4 mm 2 m/S 747 mmHg 63%
16:00 +25°C° 0.4 mm 3 m/S 746 mmHg 68%
17:00 +25°C° 0.4 mm 3 m/S 746 mmHg 72%
18:00 +22°C° 0.1 mm 3 m/S 746 mmHg 77%
19:00 +21°C° 0.1 mm 3 m/S 746 mmHg 82%
20:00 +19°C° 0.1 mm 3 m/S 746 mmHg 86%
21:00 +19°C° 0 mm 3 m/S 746 mmHg 89%
22:00 +18°C° 0 mm 3 m/S 746 mmHg 91%
23:00 +17°C° 0 mm 3 m/S 746 mmHg 93%

Morgen, 16 Juni, Mittwoch

Zeit Temperatur Niederschläge Wind Luftdruck Luftfeuchtigkeit
00:00 +17°C° 0 mm 3 m/S 746 mmHg 94%
01:00 +16°C° 0 mm 3 m/S 746 mmHg 94%
02:00 +16°C° 0 mm 3 m/S 746 mmHg 95%
03:00 +16°C° 0 mm 3 m/S 746 mmHg 94%
04:00 +16°C° 0 mm 3 m/S 746 mmHg 94%
05:00 +16°C° 0 mm 3 m/S 747 mmHg 93%
06:00 +17°C° 0 mm 3 m/S 747 mmHg 86%
07:00 +19°C° 0 mm 4 m/S 747 mmHg 78%
08:00 +21°C° 0 mm 4 m/S 747 mmHg 70%
09:00 +22°C° 0 mm 4 m/S 747 mmHg 66%
10:00 +23°C° 0 mm 4 m/S 748 mmHg 61%
11:00 +25°C° 0 mm 4 m/S 748 mmHg 57%
12:00 +25°C° 0 mm 4 m/S 748 mmHg 56%
13:00 +26°C° 0 mm 4 m/S 748 mmHg 54%
14:00 +26°C° 0 mm 4 m/S 748 mmHg 53%
15:00 +26°C° 0 mm 4 m/S 748 mmHg 56%
16:00 +26°C° 0 mm 4 m/S 748 mmHg 59%
17:00 +26°C° 0 mm 3 m/S 748 mmHg 62%
18:00 +24°C° 0 mm 3 m/S 748 mmHg 69%
19:00 +21°C° 0 mm 3 m/S 749 mmHg 77%
20:00 +20°C° 0 mm 3 m/S 749 mmHg 84%
21:00 +19°C° 0 mm 3 m/S 749 mmHg 87%
22:00 +18°C° 0 mm 3 m/S 749 mmHg 90%
23:00 +17°C° 0 mm 3 m/S 750 mmHg 93%

übermorgen, 17 Juni, Donnerstag

Zeit Temperatur Niederschläge Wind Luftdruck Luftfeuchtigkeit
00:00 +17°C° 0 mm 3 m/S 750 mmHg 93%
01:00 +16°C° 0 mm 3 m/S 750 mmHg 94%
02:00 +16°C° 0 mm 3 m/S 750 mmHg 94%
03:00 +16°C° 0 mm 3 m/S 751 mmHg 94%
04:00 +16°C° 0 mm 3 m/S 751 mmHg 93%
05:00 +17°C° 0 mm 3 m/S 751 mmHg 93%
06:00 +18°C° 0 mm 3 m/S 751 mmHg 86%
07:00 +20°C° 0 mm 3 m/S 752 mmHg 78%
08:00 +22°C° 0 mm 4 m/S 752 mmHg 71%
09:00 +23°C° 0 mm 4 m/S 753 mmHg 67%
10:00 +25°C° 0 mm 4 m/S 753 mmHg 63%
11:00 +26°C° 0 mm 4 m/S 753 mmHg 58%
12:00 +26°C° 0 mm 4 m/S 753 mmHg 56%
13:00 +27°C° 0 mm 4 m/S 753 mmHg 54%
14:00 +27°C° 0 mm 5 m/S 753 mmHg 53%
15:00 +26°C° 0 mm 5 m/S 753 mmHg 55%
16:00 +26°C° 0 mm 4 m/S 753 mmHg 58%
17:00 +25°C° 0 mm 4 m/S 753 mmHg 61%
18:00 +22°C° 0 mm 4 m/S 754 mmHg 68%
19:00 +20°C° 0 mm 3 m/S 754 mmHg 75%
20:00 +19°C° 0 mm 3 m/S 754 mmHg 82%
21:00 +18°C° 0 mm 3 m/S 754 mmHg 85%
22:00 +17°C° 0 mm 3 m/S 754 mmHg 87%
23:00 +16°C° 0 mm 3 m/S 755 mmHg 90%

18 Juni, Freitag

Zeit Temperatur Niederschläge Wind Luftdruck Luftfeuchtigkeit
00:00 +14°C° 0 mm 3 m/S 755 mmHg 92%
01:00 +14°C° 0 mm 3 m/S 755 mmHg 93%
02:00 +13°C° 0 mm 3 m/S 755 mmHg 94%
03:00 +13°C° 0 mm 3 m/S 755 mmHg 93%
04:00 +14°C° 0 mm 3 m/S 755 mmHg 92%
05:00 +14°C° 0 mm 3 m/S 755 mmHg 92%
06:00 +16°C° 0 mm 3 m/S 756 mmHg 85%
07:00 +18°C° 0 mm 4 m/S 756 mmHg 77%
08:00 +20°C° 0 mm 4 m/S 756 mmHg 70%
09:00 +21°C° 0 mm 4 m/S 756 mmHg 65%
10:00 +22°C° 0 mm 4 m/S 756 mmHg 60%
11:00 +23°C° 0 mm 5 m/S 756 mmHg 55%
12:00 +25°C° 0 mm 5 m/S 756 mmHg 54%
13:00 +25°C° 0 mm 5 m/S 756 mmHg 53%
14:00 +26°C° 0 mm 5 m/S 756 mmHg 52%
15:00 +25°C° 0 mm 5 m/S 756 mmHg 56%
16:00 +25°C° 0 mm 4 m/S 755 mmHg 60%
17:00 +25°C° 0 mm 4 m/S 755 mmHg 64%
18:00 +22°C° 0 mm 4 m/S 755 mmHg 72%
19:00 +20°C° 0 mm 3 m/S 755 mmHg 79%
20:00 +19°C° 0 mm 3 m/S 755 mmHg 86%
21:00 +18°C° 0 mm 3 m/S 756 mmHg 89%
22:00 +17°C° 0 mm 3 m/S 756 mmHg 91%
23:00 +16°C° 0 mm 3 m/S 756 mmHg 93%

19 Juni, Samstag

Zeit Temperatur Niederschläge Wind Luftdruck Luftfeuchtigkeit
00:00 +16°C° 0 mm 3 m/S 756 mmHg 94%
01:00 +15°C° 0 mm 2 m/S 756 mmHg 94%
02:00 +15°C° 0 mm 2 m/S 756 mmHg 94%
03:00 +15°C° 0 mm 2 m/S 756 mmHg 94%
04:00 +15°C° 0 mm 2 m/S 756 mmHg 93%
05:00 +15°C° 0 mm 2 m/S 756 mmHg 92%
06:00 +17°C° 0 mm 3 m/S 756 mmHg 85%
07:00 +19°C° 0 mm 3 m/S 757 mmHg 78%
08:00 +21°C° 0 mm 3 m/S 757 mmHg 70%
09:00 +22°C° 0 mm 4 m/S 756 mmHg 67%
10:00 +23°C° 0 mm 4 m/S 756 mmHg 63%
11:00 +25°C° 0 mm 5 m/S 756 mmHg 59%
12:00 +25°C° 0 mm 4 m/S 756 mmHg 57%
13:00 +26°C° 0 mm 4 m/S 756 mmHg 56%
14:00 +26°C° 0 mm 4 m/S 755 mmHg 54%
15:00 +26°C° 0 mm 4 m/S 755 mmHg 57%
16:00 +26°C° 0 mm 3 m/S 755 mmHg 59%
17:00 +26°C° 0 mm 3 m/S 755 mmHg 61%
18:00 +24°C° 0 mm 3 m/S 755 mmHg 68%
19:00 +22°C° 0 mm 3 m/S 755 mmHg 74%
20:00 +20°C° 0 mm 2 m/S 755 mmHg 80%
21:00 +19°C° 0 mm 2 m/S 755 mmHg 83%
22:00 +18°C° 0 mm 2 m/S 755 mmHg 86%
23:00 +17°C° 0 mm 2 m/S 755 mmHg 89%

20 Juni, Sonntag

Zeit Temperatur Niederschläge Wind Luftdruck Luftfeuchtigkeit
00:00 +17°C° 0 mm 2 m/S 755 mmHg 90%
01:00 +17°C° 0 mm 2 m/S 755 mmHg 90%
02:00 +16°C° 0 mm 2 m/S 755 mmHg 91%
03:00 +16°C° 0 mm 2 m/S 755 mmHg 91%
04:00 +17°C° 0 mm 2 m/S 755 mmHg 90%
05:00 +17°C° 0 mm 2 m/S 755 mmHg 90%
06:00 +18°C° 0 mm 2 m/S 755 mmHg 83%
07:00 +20°C° 0 mm 3 m/S 755 mmHg 77%
08:00 +21°C° 0 mm 3 m/S 755 mmHg 70%
09:00 +22°C° 0 mm 3 m/S 755 mmHg 66%
10:00 +24°C° 0 mm 3 m/S 755 mmHg 61%
11:00 +25°C° 0 mm 3 m/S 755 mmHg 57%
12:00 +26°C° 0 mm 3 m/S 754 mmHg 56%
13:00 +26°C° 0 mm 3 m/S 754 mmHg 54%
14:00 +27°C° 0 mm 3 m/S 754 mmHg 53%
15:00 +27°C° 0 mm 3 m/S 754 mmHg 56%
16:00 +27°C° 0 mm 3 m/S 753 mmHg 58%
17:00 +26°C° 0 mm 2 m/S 753 mmHg 60%
18:00 +25°C° 0 mm 2 m/S 753 mmHg 67%
19:00 +23°C° 0 mm 2 m/S 753 mmHg 73%
20:00 +21°C° 0 mm 2 m/S 753 mmHg 79%
21:00 +20°C° 0 mm 2 m/S 753 mmHg 81%
22:00 +19°C° 0 mm 2 m/S 753 mmHg 84%
23:00 +18°C° 0 mm 2 m/S 753 mmHg 86%
Mehr zeigen

Wir brauchen deine Erlaubnis

Meteoprog und unser Service Anbieter werden persönliche Daten aufbewahren, so wie Cookies, Geräte Bezeichnung oder ähnliche Technologien von deinem Gerät und Prozess, so wie Persönliche Daten Inhalte und Werbungen, genauso wie social Media und den Verkehr zu analysieren.

  • Aufbewahrung und/oder Zugang zu deiner Geräte Informationen.

    Cookies, Geräte Bezeichnung oder andere Informationen, können aufbewahrt oder Zugang zu deinem Gerät erhalten, für den Grund, der oben angegeben wird.

  • Personalisierte Werbung und Inhalte, Messungen, Einblick in das Publikum und Produkt Entwicklung.

    Werbungen und Inhalte können personalisiert werden, basierend auf ein Profil. Mehr Daten können besser personalisierte Werbungen und Inhalte hinzufügen. Werbung und Inhalte können gezeigt und gemessen werden. Einblicke über das Publikum, welche die Werbung gesehen haben und den Inhalt, können abgeleitet werden. So wie Daten können genutzt werden, um es zu verbessern oder die Benutzer Erfahrung zu verbessern das System und die Software.

Wenn du “Ich stimme zu” klickst, erlaubst du uns, die Cookies zu benutzen die Geräte Bezeichnung, den Web oder ähnliche Technologien zu benutzen. Deine Settings, können in deinem Gerät bei deinem Browser geändert werden.

Für den bestimmten Zweck, berechtigten Interessen beruhen darauf, mehr als auf den Inhalt. Du kannst mehr darüber in unseren Privaten und Cookie Politik lesen.